Location: Austin
(30.3000°N, 97.7500°W)
Time: 23:50:30
(UTC-05:00)

Cosmos 1452 Rocket - Pass Details

Date: 06 May 2026
Orbit: 764 x 769 km, 74.1° (Epoch: 13 May)

Event Time Altitude Azimuth Distance (km) Brightness Sun altitude
Exits shadow 22:17:39 70° 129° (SE) 811 3.3 -24.4°
Maximum altitude 22:17:56 72° 104° (ESE) 803 3.3 -24.4°
Drops below altitude 10° 22:23:07 10° 21° (NNE) 2,300 6.2 -25.3°
Sets 22:25:30 0° 19° (NNE) 3,229 7.0 -25.7°
